USA 164 (MILSTAR-2 3)

Last updated on Wed Sep 09 2026 00:02:57 GMT+0000 (Coordinated Universal Time)

1 27168U 02001A 26251.52022895 .00000084 00000+0 00000+0 0 9996 2 27168 11.2800 21.3813 0097929 9.8172 162.7236 1.00277383 33799
UTC large
Height (km)
Speed (km/s)
/
Latitude / Longitude
Inclination (degrees)
Orbital Period (minutes)
Azimuth
Elevation
Range (km)
Doppler Factor

Next 0 passes for location: London (51.5072 / 0.1276)

No passes found over London.
USA 164 (MILSTAR-2 3)